Location: ??? ???
(33.4974°N, 35.4618°E)
Time: 17:26:43
(UTC+00:00)

Cosmos 1302 Rocket - Pass Details

Date: 29 October 2020
Orbit: 756 x 777 km, 74.0° (Epoch: 29 November)

Event Time Altitude Azimuth Distance (km) Brightness Sun altitude
Rises 15:11:18 0° 201° (SSW) 3,216 7.7 -5.4°
Reaches altitude 10° 15:13:40 10° 203° (SSW) 2,297 7.0 -5.9°
Maximum altitude 15:18:52 71° 287° (WNW) 814 4.4 -6.9°
Drops below altitude 10° 15:24:08 10° 12° (NNE) 2,323 6.3 -8.0°
Sets 15:26:32 0° 15° (NNE) 3,256 7.0 -8.5°
